Flag for Canada Weather past 2 weeks in Caledon, Ontario, Canada

57 °F


Feels Like: 55 °F
Forecast: 42 / 55 °F
Wind: 9 mph from Northwest

Location: Borden

Current Time: Oct 9, 2015 at 10:19:34 AM

Latest Report: Oct 9, 2015 at 10:00 AM

Visibility: 9 mi

Pressure: 29.81 "Hg

Humidity: 94%

Dew point: 55 °F

Location of CaledonLocation

Historic Weather in Caledon — Graph


Caledon temperature yesterday

Maximum temperature yesterday: 59 °F (at 1:00 PM)
Minimum temperature yesterday: 28 °F (at 7:00 AM)
Average temperature yesterday: 44 °F

Past Weeks' High & Low Weather Summary

High75 °F (Sep 24, 3:00 PM)100% (Sep 24, 9:00 AM)30.52 "Hg (Sep 24, 9:00 AM)
Low28 °F (Oct 2, 4:00 AM)34% (Oct 1, 4:00 PM)29.76 "Hg (Oct 9, 4:47 AM)
Average51 °F79%30.27 "Hg
* Reported Sep 24 9:00 AM — Oct 9 9:00 AM, Caledon, Weather by CustomWeather, © 2015

Note: Actual official high and low records may vary slightly from our data, if they occured in-between our weather recording intervals... More about our weather records


Caledon weather history for previous 24 hours

Time TempWeatherWind HumidityBarometerVisibility
9:00 AM
Fri, Oct 9
57 °FOvercast.No wind100%29.79 "Hg9 mi
8:00 AM55 °FOvercast.No wind100%29.78 "Hg8 mi
7:00 AM52 °FMostly cloudy.No wind100%29.77 "Hg8 mi
6:00 AM52 °FOvercast.5 mph100%29.77 "Hg9 mi
5:00 AM50 °FMostly cloudy.7 mph100%29.77 "Hg9 mi
4:47 AM50 °FPartly cloudy.8 mph100%29.76 "Hg9 mi
4:00 AM50 °FLow clouds.8 mph100%29.79 "Hg9 mi
3:00 AM48 °FLight rain. Low clouds.8 mph100%29.81 "Hg9 mi
2:00 AM48 °FLight rain. Mostly cloudy.9 mph100%29.83 "Hg9 mi
1:59 AM48 °FLight rain. Mostly cloudy.9 mph100%29.83 "Hg9 mi
1:00 AM48 °FLow clouds.9 mph100%29.87 "Hg9 mi
12:45 AM48 °FLow clouds.9 mph100%29.86 "Hg9 mi
12:00 AM48 °FRain. Light fog.7 mph100%29.90 "Hg4 mi
11:51 PM
Thu, Oct 8
48 °FRain. Light fog.12 mph100%29.90 "Hg4 mi
11:00 PM48 °FLight rain. Overcast.10 mph94%29.94 "Hg9 mi
10:00 PM48 °FLight rain. Overcast.7 mph94%29.96 "Hg7 mi
9:00 PM50 °FLight rain. Overcast.6 mph88%29.99 "Hg9 mi
8:00 PM54 °FPassing clouds.9 mph67%30.01 "Hg9 mi
7:00 PM54 °FSunny.8 mph67%30.02 "Hg9 mi
6:00 PM55 °FPassing clouds.10 mph63%30.04 "Hg9 mi
5:00 PM57 °FSunny.10 mph59%30.06 "Hg9 mi
4:00 PM59 °FPassing clouds.12 mph55%30.06 "Hg9 mi
3:00 PM59 °FPartly sunny.13 mph55%30.08 "Hg9 mi
2:00 PM59 °FPartly sunny.9 mph59%30.13 "Hg9 mi
1:00 PM59 °FPassing clouds.10 mph55%30.14 "Hg9 mi
12:00 PM55 °FSunny.12 mph59%30.16 "Hg9 mi
11:00 AM52 °FPassing clouds.9 mph62%30.20 "Hg9 mi
10:00 AM46 °FSunny.5 mph87%30.20 "Hg9 mi
Weather by CustomWeather, © 2015

See weather overviewHow to use our weather pages